SL-8 R/B

Satellite information

Favourite Embed

Satellite Type and Status

ROCKET BODYIN ORBIT

Key statistics

Satellite SL-8 R/B at a glance.

Uptime

18162

Days in orbit

Revolutions

≈ 13.7

Per day

Orbit

LEO

Low Earth Orbit

Inclination

83.0

Latest

Satellite identification and parameters

Extended collection of information and parameters for SL-8 R/B.

Object identification

Identified? True

Debris? False

Object name: SL-8 R/B

International designator: 1976-011B

Object number (NORAD): 8646

Object ID (CCSDS): 8646

Country: COMMONWEALTH OF INDEPENDENT STATES (CIS)

Current information (Y/N): Y

RCS size: LARGE

Orbital parameters

Period: 104.799 minutes

Inclination: 82.9687 deg

SMA: 7363.155 km

Apoapsis: 990.237 km

Periapsis: 979.803 km

RAAN: 244.311 deg

Eccentricy: 0.00070849

Argument of periapsis: 77.0848 deg

Mean anomaly: 347.9742 deg

Mean motion: 13.74063649 rev/day

Mean motion (dot): 0.0000006 rev/day2

B* drag term: 0.000047591872 1/REarth

Two-line elements (TLE)

Creation date: Oct. 25, 2025, 3:11 a.m.

Reference frame: TEME

Reference center: EARTH

Epoch: Oct. 24, 2025, 10:28 p.m. UTC

TLE line 0: 0 SL-8 R/B

TLE line 1: 1 08646U 76011B 25297.93634089 .00000060 00000-0 47592-4 0 9993

TLE line 2: 2 08646 82.9687 244.3110 0007085 77.0848 347.9742 13.74063649492414

Live tracking on map

Real-time ground track for satellite SL-8 R/B.

In-orbit conjunctions

A list of the most updated potential collisions computed for object SL-8 R/B.

Target Orbit TCA Probability of collision Miss distance Type
SL-8 DEB LEO 2025-03-15 22:30:50 0.0001007676 397.0 (m) DEBRIS
SL-8 R/B LEO 2024-09-12 21:10:08 0.0001020523 335.0 (m) ROCKET BODY

Associated space launch

The first soviet navigation system called Tsiklon consisted of Zaliv satellites in low earth orbit.

SL-8 R/B was lifted into orbit during the mission ‘Kosmos-3M | Zaliv 20’, on board a Kosmos-3M space rocket.

The launch took place on Feb. 3, 1976, 8:16 a.m. from 132/1 (132L).

For more information about the launch, click the button.

Launch to space Kosmos-3M | Zaliv 20
Kosmos-3M | Zaliv 20

Agency: N/A

Status: Launch Successful

Launch date: Feb. 3, 1976, 8:16 a.m. UTC

Rocket: Kosmos-3M

Launch pad: 132/1 (132L)

Location: Plesetsk Cosmodrome, Russian Federation

...

Latest news about this satellite

There are no fresh news available about this satellite. Check back as we update our databases every day.


Newsletter sign-up

Weekly statistics, charts and insights to help you stay on top of the space industry.